Temp
-27 -28 -28 -27 -27 -24 -23 -22 -22 -21 -21 -20 -20 -21 -20 -20 -19 -19 -19 -19 -19 -19 -18 -18 -17 -17 -16 -16 -16 -16 -16 -16 -16 -16 -16 -16 -16 -16 -16 -16 -15 -15 -15 -15 -15 -15 -14 -15 -14 -14 -14 -14 -14 -15
-23 -23 -21 -22 -22 -23 -23 -22 -22 -21 -21 -20 -20 -21 -20 -19 -19 -19 -19 -18 -18 -19 -18 -17 -17 -17 -16 -17 -17 -16 -16 -16 -16 -16 -16 -16 -16 -16 -16 -15 -16 -15 -15 -15 -15 -15 -15 -15 -14 -15 -15 -15 -15 -15
-23 -22 -22 -22 -21 -21 -21 -20 -20 -20 -20 -20 -20 -19 -19 -19 -19 -19 -19 -19 -18 -19 -18 -18 -17 -17 -17 -17 -17 -16 -16 -16 -16 -16 -16 -16 -16 -16 -16 -15 -15 -15 -15 -15 -15 -15 -15 -15 -15 -15 -15 -15 -16 -16
-21 -21 -21 -21 -21 -21 -20 -20 -20 -20 -20 -20 -19 -20 -20 -19 -19 -19 -19 -19 -19 -18 -18 -17 -17 -17 -17 -17 -17 -17 -16 -16 -16 -16 -16 -16 -16 -16 -16 -16 -16 -16 -16 -16 -16 -16 -15 -15 -15 -16 -16 -16 -16 -17
-20 -20 -20 -20 -20 -20 -20 -20 -20 -20 -20 -20 -21 -20 -20 -19 -19 -19 -19 -19 -19 -18 -18 -18 -18 -17 -17 -17 -17 -17 -17 -16 -16 -16 -16 -16 -16 -16 -16 -16 -16 -16 -16 -16 -16 -16 -16 -16 -16 -16 -16 -17 -17 -17
-20 -20 -20 -20 -20 -20 -20 -21 -21 -21 -21 -20 -20 -20 -20 -20 -19 -19 -19 -19 -18 -18 -18 -18 -17 -17 -17 -17 -17 -17 -17 -16 -16 -16 -16 -16 -16 -16 -16 -16 -16 -16 -16 -16 -16 -17 -16 -17 -17 -17 -17 -18 -18 -18
-20 -20 -20 -20 -20 -20 -20 -20 -20 -20 -20 -19 -20 -20 -20 -20 -19 -18 -19 -19 -18 -18 -18 -18 -17 -17 -17 -17 -17 -17 -17 -17 -17 -16 -16 -16 -16 -16 -16 -16 -16 -17 -17 -17 -17 -17 -17 -18 -17 -18 -18 -18 -18 -18
-20 -20 -20 -20 -20 -20 -19 -20 -20 -20 -20 -20 -20 -20 -20 -20 -20 -19 -19 -19 -19 -19 -18 -18 -17 -17 -17 -17 -17 -17 -17 -17 -17 -17 -16 -17 -17 -16 -16 -17 -17 -17 -17 -18 -18 -18 -18 -18 -18 -18 -18 -19 -19 -19
-19 -20 -20 -19 -20 -19 -19 -19 -19 -20 -19 -19 -20 -21 -20 -20 -19 -19 -19 -18 -19 -18 -18 -18 -18 -17 -17 -17 -17 -17 -17 -17 -17 -17 -17 -17 -17 -16 -17 -18 -18 -18 -18 -18 -18 -18 -19 -19 -19 -19 -19 -19 -19 -20
-20 -19 -20 -20 -19 -19 -19 -19 -19 -19 -20 -20 -21 -20 -20 -19 -20 -19 -19 -19 -18 -18 -18 -18 -18 -18 -18 -18 -18 -18 -18 -18 -17 -17 -17 -17 -17 -18 -19 -19 -19 -19 -19 -19 -18 -18 -19 -19 -19 -20 -20 -20 -20 -21
-20 -20 -19 -19 -20 -19 -19 -19 -19 -19 -20 -20 -20 -19 -19 -19 -19 -19 -19 -19 -18 -18 -18 -18 -18 -18 -18 -18 -18 -18 -18 -18 -17 -18 -18 -17 -18 -19 -19 -19 -19 -19 -19 -19 -19 -19 -20 -20 -20 -20 -20 -21 -21 -21
-20 -20 -20 -19 -19 -19 -19 -19 -19 -19 -20 -20 -19 -19 -19 -20 -19 -19 -19 -19 -19 -19 -19 -19 -19 -19 -19 -19 -19 -19 -19 -19 -18 -19 -19 -18 -19 -19 -19 -19 -20 -19 -19 -20 -20 -20 -20 -20 -20 -21 -21 -22 -22 -22
-20 -20 -20 -20 -19 -19 -19 -20 -19 -19 -19 -19 -19 -19 -19 -20 -20 -19 -19 -19 -19 -19 -20 -20 -19 -19 -20 -20 -20 -20 -20 -19 -19 -19 -19 -18 -19 -19 -19 -19 -20 -20 -20 -20 -21 -21 -21 -21 -22 -22 -22 -23 -23 -23
-21 -20 -20 -20 -20 -20 -20 -20 -19 -19 -19 -19 -20 -20 -20 -20 -20 -20 -20 -20 -20 -20 -20 -20 -20 -20 -20 -20 -20 -20 -20 -19 -19 -19 -19 -20 -20 -20 -20 -20 -20 -21 -21 -21 -21 -21 -22 -22 -23 -23 -23 -24 -24 -25
-20 -20 -20 -20 -20 -20 -20 -20 -20 -20 -19 -20 -20 -20 -20 -20 -20 -20 -20 -20 -20 -20 -20 -20 -20 -20 -20 -20 -20 -20 -20 -19 -19 -19 -20 -20 -21 -21 -21 -21 -21 -21 -21 -21 -22 -22 -23 -24 -24 -24 -24 -25 -25 -26
-21 -21 -21 -20 -20 -20 -20 -20 -20 -20 -20 -20 -20 -20 -20 -20 -20 -20 -20 -20 -20 -20 -20 -20 -20 -20 -20 -20 -20 -20 -20 -20 -20 -20 -21 -21 -21 -21 -21 -21 -21 -22 -22 -22 -23 -24 -24 -24 -24 -25 -25 -25 -26 -27
-21 -21 -21 -21 -21 -20 -20 -20 -20 -20 -20 -20 -20 -20 -20 -20 -20 -20 -20 -20 -20 -20 -20 -20 -20 -20 -20 -20 -20 -21 -21 -21 -21 -21 -21 -21 -21 -22 -22 -22 -22 -23 -23 -24 -24 -24 -24 -25 -25 -25 -26 -26 -27 -28
-21 -21 -21 -21 -21 -21 -21 -21 -21 -21 -20 -20 -20 -20 -20 -20 -20 -20 -20 -20 -20 -21 -21 -21 -21 -21 -21 -21 -21 -21 -21 -21 -22 -22 -22 -22 -22 -22 -23 -23 -24 -24 -24 -24 -24 -25 -25 -25 -26 -26 -27 -27 -28 -29
-21 -21 -21 -21 -21 -21 -21 -21 -21 -21 -21 -21 -21 -21 -21 -21 -21 -21 -21 -21 -21 -21 -21 -21 -21 -21 -21 -21 -22 -22 -22 -22 -22 -22 -23 -23 -24 -24 -24 -25 -25 -25 -25 -25 -25 -25 -26 -26 -27 -27 -28 -29 -30 -30
-22 -22 -21 -21 -21 -21 -21 -21 -21 -21 -21 -21 -21 -21 -21 -21 -21 -21 -21 -21 -21 -21 -21 -22 -22 -22 -22 -22 -22 -22 -23 -23 -24 -24 -25 -25 -25 -25 -25 -25 -25 -25 -25 -26 -26 -26 -27 -27 -28 -29 -30 -30 -31 -31
-24 -24 -24 -23 -22 -22 -21 -21 -21 -21 -21 -21 -21 -21 -21 -21 -21 -21 -21 -21 -21 -21 -21 -22 -22 -22 -23 -24 -24 -25 -25 -25 -25 -25 -25 -25 -25 -25 -25 -26 -26 -26 -26 -27 -27 -28 -28 -29 -30 -30 -31 -31 -31 -31
-26 -26 -26 -26 -25 -25 -25 -25 -24 -24 -24 -23 -23 -23 -23 -23 -23 -23 -23 -24 -24 -24 -24 -25 -25 -25 -25 -25 -25 -25 -25 -25 -25 -25 -26 -26 -26 -26 -26 -27 -27 -27 -28 -28 -29 -30 -30 -31 -31 -31 -31 -31 -31 -31
-26 -26 -26 -26 -26 -26 -26 -26 -26 -26 -26 -26 -26 -25 -25 -25 -25 -25 -25 -25 -25 -25 -26 -26 -26 -26 -26 -26 -26 -26 -26 -26 -26 -26 -26 -26 -27 -27 -27 -28 -29 -29 -30 -30 -31 -31 -31 -31 -31 -31 -31 -31 -32 -31
-26 -26 -26 -26 -27 -27 -27 -26 -26 -26 -26 -26 -26 -26 -26 -26 -26 -26 -26 -26 -26 -26 -26 -26 -26 -26 -26 -26 -26 -26 -26 -26 -27 -27 -27 -28 -28 -29 -30 -30 -31 -31 -31 -32 -32 -31 -32 -32 -32 -32 -32 -32 -32 -32
-27 -27 -27 -27 -27 -27 -27 -27 -27 -27 -27 -27 -26 -26 -26 -26 -26 -26 -26 -26 -26 -26 -26 -26 -26 -26 -26 -26 -27 -27 -27 -28 -28 -29 -30 -31 -31 -32 -32 -32 -32 -32 -32 -32 -32 -32 -32 -32 -32 -32 -32 -32 -32 -33
-27 -27 -27 -27 -28 -28 -28 -27 -27 -27 -27 -27 -27 -27 -27 -27 -26 -26 -26 -26 -26 -26 -26 -26 -27 -27 -27 -28 -28 -29 -30 -31 -32 -32 -32 -32 -32 -32 -32 -32 -32 -32 -32 -32 -32 -33 -33 -33 -33 -33 -33 -33 -33 -33
-28 -28 -28 -28 -28 -28 -28 -28 -28 -28 -28 -28 -28 -28 -28 -28 -28 -28 -29 -29 -29 -29 -29 -30 -30 -31 -31 -32 -32 -32 -32 -32 -32 -32 -32 -32 -32 -32 -32 -32 -32 -32 -33 -33 -33 -33 -34 -34 -33 -33 -33 -34 -34 -34
-29 -29 -29 -30 -30 -31 -31 -31 -31 -31 -31 -31 -31 -31 -31 -31 -31 -31 -31 -31 -31 -32 -32 -32 -32 -32 -32 -32 -32 -32 -32 -32 -32 -32 -32 -32 -32 -32 -33 -33 -33 -33 -34 -34 -34 -34 -34 -34 -34 -34 -34 -35 -35 -34
-31 -31 -31 -31 -31 -31 -31 -31 -31 -31 -31 -31 -32 -32 -32 -31 -32 -32 -32 -32 -32 -32 -32 -32 -32 -32 -32 -32 -32 -32 -32 -32 -33 -33 -33 -33 -33 -33 -34 -34 -34 -34 -34 -34 -34 -34 -34 -34 -34 -35 -35 -35 -35 -36
-31 -31 -31 -31 -32 -32 -32 -32 -32 -32 -32 -32 -32 -32 -32 -32 -32 -32 -32 -32 -32 -32 -32 -32 -32 -33 -33 -33 -33 -33 -33 -33 -33 -34 -34 -34 -34 -34 -34 -34 -34 -34 -34 -34 -34 -34 -34 -35 -35 -35 -35 -36 -36 -36
-32 -32 -32 -32 -32 -32 -32 -32 -32 -32 -32 -32 -32 -33 -33 -33 -33 -33 -33 -33 -33 -33 -33 -33 -33 -33 -33 -33 -34 -34 -34 -34 -34 -34 -34 -35 -34 -34 -34 -34 -34 -34 -34 -35 -35 -35 -35 -36 -36 -36 -37 -37 -37 -37
-32 -32 -32 -32 -32 -32 -33 -33 -33 -33 -33 -33 -33 -33 -33 -33 -33 -33 -33 -33 -33 -33 -33 -33 -33 -33 -33 -33 -34 -34 -34 -34 -34 -35 -35 -35 -35 -35 -35 -35 -35 -35 -36 -36 -36 -36 -37 -37 -37 -38 -38 -38 -38 -38
-33 -33 -33 -33 -33 -33 -33 -33 -33 -33 -33 -33 -33 -33 -33 -33 -33 -33 -33 -33 -33 -33 -33 -33 -33 -34 -34 -34 -34 -34 -35 -35 -35 -35 -35 -35 -35 -36 -36 -36 -36 -36 -36 -36 -37 -37 -37 -38 -38 -38 -38 -38 -38 -38
Height
5294 5302 5311 5321 5330 5343 5362 5381 5401 5419 5436 5452 5473 5495 5516 5534 5550 5563 5577 5590 5602 5609 5620 5632 5640 5652 5659 5668 5676 5683 5688 5691 5696 5699 5701 5703 5704 5705 5706 5707 5708 5709 5709 5710 5710 5710 5710 5709 5707 5707 5705 5702 5698 5695
5319 5327 5338 5350 5363 5376 5389 5402 5418 5435 5450 5467 5488 5507 5523 5539 5553 5565 5577 5589 5600 5609 5620 5630 5639 5648 5656 5662 5671 5677 5682 5686 5689 5693 5697 5698 5700 5701 5702 5703 5703 5704 5705 5705 5705 5703 5701 5699 5698 5695 5693 5690 5687 5683
5348 5359 5368 5377 5386 5397 5409 5423 5438 5452 5466 5483 5499 5515 5528 5543 5556 5568 5577 5588 5598 5608 5617 5625 5634 5645 5653 5660 5668 5672 5677 5681 5685 5688 5691 5692 5694 5696 5697 5697 5697 5697 5697 5697 5697 5695 5691 5689 5687 5684 5682 5678 5675 5671
5371 5377 5386 5395 5408 5419 5429 5442 5454 5468 5481 5495 5509 5522 5535 5548 5561 5570 5577 5587 5596 5606 5614 5625 5633 5641 5649 5656 5662 5667 5673 5676 5679 5682 5684 5686 5689 5690 5690 5690 5690 5690 5689 5688 5688 5685 5683 5679 5676 5675 5670 5667 5664 5660
5397 5403 5412 5420 5428 5438 5448 5459 5470 5481 5493 5506 5518 5531 5542 5553 5562 5570 5579 5587 5596 5603 5612 5623 5631 5638 5645 5652 5657 5663 5667 5670 5673 5676 5678 5680 5681 5682 5682 5682 5682 5682 5680 5679 5677 5675 5673 5669 5666 5664 5660 5656 5653 5648
5419 5425 5433 5440 5447 5455 5464 5473 5483 5494 5504 5515 5526 5535 5544 5554 5565 5570 5578 5587 5595 5602 5612 5619 5628 5635 5641 5647 5652 5657 5661 5664 5666 5669 5671 5672 5673 5674 5673 5673 5673 5672 5671 5669 5666 5663 5660 5657 5655 5651 5648 5645 5641 5637
5439 5444 5451 5457 5464 5471 5479 5487 5496 5505 5513 5521 5530 5539 5548 5557 5563 5571 5579 5588 5594 5600 5609 5617 5624 5630 5636 5642 5647 5650 5654 5657 5660 5661 5663 5664 5665 5665 5664 5663 5664 5662 5660 5658 5656 5652 5649 5645 5642 5639 5637 5633 5630 5626
5457 5461 5466 5471 5475 5481 5488 5495 5503 5510 5518 5526 5533 5541 5549 5557 5564 5571 5580 5589 5593 5599 5606 5613 5619 5626 5631 5635 5640 5644 5647 5649 5651 5653 5654 5655 5655 5654 5653 5654 5652 5650 5648 5647 5645 5641 5637 5634 5631 5629 5625 5621 5617 5613
5471 5474 5478 5482 5487 5492 5498 5502 5509 5516 5522 5529 5536 5544 5550 5556 5564 5569 5576 5583 5590 5597 5602 5609 5615 5621 5625 5629 5633 5636 5638 5640 5642 5643 5645 5645 5645 5644 5644 5643 5642 5639 5638 5635 5632 5629 5626 5624 5620 5616 5612 5608 5604 5599
5481 5485 5489 5493 5497 5502 5506 5510 5514 5520 5525 5531 5537 5544 5552 5558 5565 5573 5577 5582 5587 5593 5598 5604 5610 5615 5620 5623 5626 5629 5630 5631 5632 5634 5634 5634 5634 5634 5634 5633 5631 5628 5626 5622 5620 5618 5615 5611 5608 5603 5599 5595 5591 5586
5490 5492 5496 5501 5506 5509 5512 5516 5521 5525 5530 5536 5542 5550 5555 5562 5568 5573 5576 5579 5583 5589 5594 5599 5604 5608 5612 5616 5617 5619 5620 5621 5622 5624 5623 5624 5625 5625 5623 5622 5619 5616 5613 5612 5609 5606 5603 5600 5596 5592 5588 5583 5578 5572
5495 5498 5502 5506 5510 5514 5519 5522 5527 5532 5537 5541 5547 5552 5556 5561 5566 5570 5573 5577 5583 5589 5593 5597 5601 5604 5606 5608 5609 5611 5611 5611 5611 5613 5614 5613 5618 5614 5612 5610 5606 5605 5603 5600 5597 5594 5591 5588 5584 5579 5574 5569 5563 5557
5498 5502 5506 5509 5514 5518 5523 5526 5531 5535 5540 5544 5548 5552 5555 5560 5565 5569 5573 5578 5582 5586 5589 5591 5594 5596 5598 5600 5601 5602 5601 5602 5603 5603 5602 5605 5604 5602 5600 5598 5596 5593 5591 5588 5585 5582 5579 5575 5570 5565 5560 5555 5550 5544
5502 5505 5508 5511 5515 5519 5523 5528 5533 5537 5541 5545 5549 5552 5555 5559 5564 5569 5572 5575 5578 5581 5584 5586 5588 5590 5591 5593 5592 5593 5593 5592 5591 5592 5594 5594 5591 5590 5588 5585 5584 5582 5579 5576 5573 5569 5564 5560 5555 5550 5546 5540 5534 5527
5504 5506 5509 5513 5516 5519 5523 5527 5531 5536 5540 5544 5548 5550 5555 5559 5562 5564 5567 5570 5573 5576 5578 5580 5581 5582 5583 5582 5583 5583 5581 5580 5580 5582 5582 5580 5578 5576 5575 5573 5571 5568 5565 5562 5558 5553 5549 5545 5541 5536 5531 5525 5518 5512
5505 5507 5509 5512 5515 5518 5522 5525 5529 5532 5536 5540 5543 5546 5550 5554 5557 5559 5562 5564 5566 5568 5570 5571 5571 5571 5572 5572 5572 5571 5571 5570 5571 5570 5569 5567 5566 5564 5562 5560 5557 5554 5551 5546 5543 5540 5536 5532 5527 5522 5516 5510 5504 5497
5505 5507 5509 5512 5514 5517 5520 5523 5526 5529 5532 5535 5539 5542 5544 5547 5550 5553 5555 5557 5558 5560 5561 5561 5562 5561 5561 5561 5562 5562 5562 5561 5560 5559 5557 5556 5555 5552 5549 5546 5543 5540 5536 5533 5530 5527 5523 5518 5512 5507 5501 5495 5489 5483
5501 5505 5507 5510 5512 5515 5518 5520 5522 5525 5528 5531 5534 5536 5538 5540 5542 5544 5546 5548 5550 5550 5551 5552 5552 5552 5552 5552 5552 5552 5551 5550 5549 5548 5546 5543 5541 5538 5535 5533 5530 5527 5524 5521 5517 5513 5508 5503 5498 5492 5486 5479 5473 5468
5497 5500 5502 5505 5508 5512 5514 5517 5520 5521 5523 5525 5527 5528 5530 5532 5534 5536 5538 5539 5541 5542 5542 5542 5542 5542 5542 5542 5541 5540 5539 5538 5536 5534 5532 5530 5527 5525 5523 5521 5518 5515 5512 5508 5504 5499 5494 5488 5483 5477 5471 5465 5459 5453
5490 5492 5496 5499 5502 5504 5507 5510 5513 5515 5517 5519 5520 5522 5523 5525 5526 5527 5529 5530 5531 5531 5531 5531 5531 5531 5531 5530 5528 5526 5525 5523 5522 5520 5518 5517 5515 5514 5511 5508 5505 5501 5497 5493 5488 5483 5478 5473 5467 5461 5456 5450 5444 5438
5489 5489 5490 5492 5493 5496 5498 5500 5502 5505 5507 5508 5510 5511 5512 5514 5515 5516 5517 5518 5518 5518 5518 5518 5517 5516 5515 5515 5514 5513 5512 5511 5510 5509 5507 5505 5503 5500 5497 5493 5489 5486 5482 5477 5472 5466 5462 5456 5451 5446 5441 5435 5429 5422
5487 5488 5488 5489 5490 5491 5492 5493 5495 5496 5498 5498 5500 5500 5502 5503 5503 5504 5505 5505 5505 5506 5506 5505 5505 5505 5504 5504 5503 5502 5501 5500 5498 5496 5493 5491 5488 5485 5481 5478 5474 5469 5465 5460 5455 5451 5446 5441 5436 5431 5426 5420 5413 5406
5486 5486 5487 5487 5488 5489 5490 5490 5491 5492 5492 5493 5494 5494 5495 5495 5495 5496 5496 5496 5496 5496 5496 5496 5495 5495 5494 5493 5491 5490 5488 5486 5483 5480 5477 5475 5472 5469 5465 5461 5457 5453 5449 5444 5440 5436 5431 5427 5422 5416 5410 5403 5396 5389
5484 5484 5483 5484 5484 5484 5485 5485 5485 5486 5486 5487 5487 5487 5488 5488 5488 5487 5487 5487 5486 5485 5485 5484 5483 5482 5481 5479 5476 5474 5472 5470 5467 5464 5461 5458 5454 5451 5448 5444 5441 5438 5434 5430 5426 5422 5417 5412 5406 5400 5393 5386 5379 5370
5479 5478 5478 5477 5476 5477 5477 5476 5477 5477 5477 5477 5477 5477 5477 5477 5476 5476 5475 5474 5474 5473 5472 5470 5469 5467 5465 5463 5460 5458 5455 5453 5450 5447 5444 5442 5439 5437 5435 5431 5428 5424 5420 5416 5412 5406 5401 5395 5389 5383 5376 5368 5360 5352
5471 5470 5470 5468 5467 5467 5467 5466 5466 5466 5466 5466 5466 5465 5465 5464 5463 5461 5460 5459 5457 5456 5455 5453 5451 5449 5447 5445 5443 5441 5439 5437 5436 5434 5432 5429 5427 5424 5421 5418 5415 5411 5406 5401 5396 5390 5384 5378 5372 5365 5357 5350 5342 5334
5462 5461 5460 5459 5458 5457 5457 5456 5455 5455 5454 5454 5453 5453 5452 5450 5449 5447 5445 5443 5442 5440 5438 5437 5435 5434 5432 5431 5430 5429 5428 5427 5425 5422 5420 5417 5415 5411 5408 5404 5400 5396 5391 5386 5380 5374 5368 5361 5354 5346 5339 5332 5325 5318
5454 5453 5453 5452 5452 5451 5451 5450 5450 5449 5448 5447 5446 5445 5444 5443 5442 5441 5439 5437 5436 5434 5432 5431 5429 5427 5425 5424 5422 5420 5418 5416 5413 5410 5408 5404 5401 5397 5392 5388 5384 5379 5374 5369 5363 5357 5350 5344 5336 5329 5322 5316 5310 5303
5450 5450 5450 5450 5449 5449 5448 5447 5446 5445 5444 5442 5441 5440 5439 5437 5436 5434 5432 5430 5428 5426 5425 5423 5421 5418 5416 5413 5411 5409 5406 5403 5400 5396 5393 5389 5385 5381 5376 5372 5367 5362 5356 5351 5345 5339 5333 5326 5319 5313 5307 5301 5295 5289
5448 5447 5447 5446 5445 5444 5443 5442 5440 5438 5437 5435 5433 5431 5430 5427 5425 5423 5421 5419 5417 5415 5413 5411 5408 5406 5403 5400 5398 5395 5391 5388 5384 5380 5376 5372 5368 5364 5359 5354 5349 5343 5337 5331 5325 5319 5313 5307 5302 5296 5291 5286 5281 5277
5444 5443 5442 5441 5439 5437 5435 5433 5431 5429 5427 5424 5422 5420 5418 5416 5414 5412 5409 5407 5405 5403 5400 5398 5395 5392 5389 5386 5383 5380 5376 5373 5368 5364 5360 5355 5350 5345 5339 5334 5328 5322 5316 5310 5304 5299 5293 5288 5283 5279 5275 5271 5268 5264
5438 5437 5435 5433 5431 5428 5426 5424 5421 5419 5416 5414 5412 5409 5407 5405 5402 5400 5397 5395 5393 5391 5389 5386 5383 5380 5377 5373 5369 5365 5361 5357 5352 5347 5341 5336 5330 5324 5318 5313 5307 5301 5295 5290 5284 5280 5275 5271 5267 5264 5261 5257 5254 5250
5431 5429 5426 5423 5421 5419 5416 5414 5411 5408 5405 5402 5400 5398 5396 5394 5392 5391 5388 5386 5384 5381 5378 5375 5371 5367 5362 5358 5353 5348 5343 5338 5332 5327 5321 5315 5309 5303 5298 5292 5287 5282 5277 5272 5268 5264 5260 5256 5252 5249 5247 5244 5240 5237
Wind_Speed
42 36 33 36 40 56 79 70 61 72 76 82 81 76 76 73 66 65 62 54 57 57 58 62 62 57 55 48 41 36 32 27 22 19 15 12 10 9 9 9 10 12 14 16 18 21 25 27 30 32 35 38 40 42
59 61 70 70 78 73 55 57 59 63 66 72 75 70 71 73 58 55 56 53 55 55 57 62 59 57 53 49 41 36 34 30 27 24 19 16 15 14 13 15 16 18 20 22 23 27 30 34 35 37 39 41 42 43
61 57 53 50 48 52 56 68 65 65 69 72 69 63 61 58 56 47 51 51 51 53 57 59 60 57 52 47 40 39 36 32 29 25 23 21 20 18 19 21 21 24 26 27 29 32 36 37 40 42 43 43 43 44
49 47 51 61 53 54 60 60 59 60 58 56 53 55 53 52 47 44 47 47 46 52 55 57 54 53 51 47 43 39 35 34 32 30 27 26 24 23 24 26 26 28 30 32 33 36 38 42 44 41 43 44 43 44
47 51 53 54 54 56 60 57 56 58 57 55 52 51 50 50 42 38 41 43 43 51 52 52 50 49 47 43 41 39 37 36 33 32 31 29 28 29 30 31 32 32 35 36 38 40 40 42 43 41 43 43 44 46
48 54 55 54 53 54 52 51 50 49 48 48 48 47 47 47 39 36 37 39 40 44 46 48 47 46 44 41 40 38 36 35 35 34 33 32 32 34 36 37 37 37 38 40 40 41 42 41 41 44 45 45 45 45
49 49 49 48 47 47 47 47 46 46 44 44 43 43 42 43 39 37 34 38 40 40 43 43 43 44 42 40 39 38 37 36 36 36 36 36 37 38 40 41 39 38 38 39 38 39 42 43 46 45 44 46 46 47
36 38 39 38 40 42 41 41 41 40 39 39 40 42 42 36 34 34 39 37 38 36 36 41 43 43 42 41 40 39 39 39 39 38 39 40 40 41 43 39 37 37 38 37 39 40 43 43 44 45 47 48 48 49
33 35 34 32 36 36 33 33 39 39 34 39 40 37 40 39 36 41 38 42 39 36 37 34 35 37 41 40 39 39 40 40 40 40 40 40 41 43 39 36 35 36 38 38 40 41 43 44 46 47 48 49 48 48
30 25 31 29 27 30 29 29 30 32 33 39 40 40 36 36 36 44 28 37 40 36 36 35 35 34 36 38 39 39 40 40 41 40 41 42 42 38 34 34 35 36 39 42 42 43 45 46 47 47 46 47 50 53
25 23 29 30 27 21 25 28 35 37 36 36 37 34 34 31 31 42 46 45 43 40 35 35 36 35 35 35 35 37 38 39 40 39 40 41 38 32 33 35 37 39 41 42 45 45 44 44 45 47 50 53 56 57
25 26 27 29 20 25 25 26 26 29 32 33 35 31 34 33 32 32 35 36 34 31 26 25 26 28 30 31 32 34 35 37 41 39 37 39 33 34 35 37 39 42 44 44 43 43 44 47 49 52 53 54 54 51
22 27 27 24 27 30 25 17 22 26 27 28 29 28 27 26 28 31 27 23 19 16 18 21 24 25 26 28 30 32 34 37 37 38 39 37 35 35 37 40 43 42 42 41 43 46 48 50 51 53 48 48 48 52
20 20 25 26 28 29 25 21 28 18 24 22 26 26 22 24 26 24 20 20 19 21 23 24 25 26 26 28 33 35 38 39 41 42 40 35 37 40 42 41 40 41 43 45 47 49 50 50 47 45 47 50 52 54
19 21 23 26 28 28 26 25 29 30 30 26 26 27 25 21 22 22 24 23 24 24 23 23 26 30 31 34 35 38 41 43 43 41 37 37 37 39 41 41 43 45 47 49 51 49 44 43 45 48 51 52 54 56
17 17 19 25 27 28 29 27 25 25 30 33 30 24 24 26 28 28 27 27 29 26 26 29 32 35 36 38 37 35 34 34 33 34 35 37 39 42 44 46 48 49 50 49 45 42 44 47 50 51 53 55 56 57
12 15 17 16 18 22 25 27 30 30 30 28 28 29 31 33 33 32 32 33 32 32 35 36 35 32 31 32 32 32 33 34 36 38 40 42 45 47 49 50 50 49 45 41 43 46 49 50 52 54 56 57 58 57
18 16 16 17 15 13 14 15 17 27 34 32 29 28 28 30 31 32 32 32 30 28 28 28 29 30 31 33 33 34 36 38 40 42 45 47 48 49 49 48 43 41 43 45 48 50 52 54 56 57 58 56 56 56
27 25 22 21 21 19 19 22 23 22 22 23 25 25 25 25 26 26 27 29 30 31 32 33 35 37 37 37 38 40 42 45 46 46 46 45 44 41 39 40 42 45 47 49 52 53 55 56 57 57 56 55 56 57
22 27 29 31 29 30 30 30 30 30 32 30 31 29 28 30 31 32 33 34 36 38 39 39 39 41 43 45 46 45 45 44 42 39 37 37 38 40 42 45 47 49 51 53 55 56 57 57 56 56 55 56 56 57
7 8 11 19 24 31 34 37 38 40 42 42 42 43 40 40 41 42 43 43 44 47 46 44 44 43 41 39 37 36 35 34 35 37 39 41 44 46 48 50 51 53 54 55 56 56 56 55 55 55 54 55 57 61
4 4 5 7 9 11 13 16 19 20 24 26 30 34 35 34 35 35 34 33 33 31 31 30 30 31 31 32 34 35 38 39 41 43 45 47 48 50 52 54 55 55 56 55 54 53 53 53 53 54 56 59 62 64
9 10 11 12 12 13 13 14 15 16 17 19 20 22 23 24 25 26 27 28 29 30 30 31 33 34 36 38 40 42 43 45 47 49 51 52 54 55 55 54 53 52 50 49 50 50 51 53 54 57 60 62 65 68
12 13 17 20 21 21 21 21 22 22 23 24 24 25 26 27 28 30 31 32 33 35 36 38 39 41 43 45 47 49 51 52 54 55 55 55 54 51 48 47 45 45 45 47 50 52 54 55 58 61 63 66 68 70
22 22 22 22 21 25 27 27 27 28 29 29 30 31 32 34 35 37 38 40 41 42 44 45 47 49 51 52 54 55 55 54 53 49 46 44 41 42 43 44 46 47 48 51 53 56 57 58 61 63 66 68 69 68
26 26 26 27 25 24 25 27 29 30 32 33 35 36 38 39 41 42 45 47 49 50 51 52 53 53 53 53 50 46 41 38 38 39 41 43 45 47 48 50 47 49 54 55 54 55 58 60 63 65 66 66 66 64
30 29 25 22 22 22 23 23 24 26 27 28 29 29 30 30 32 31 32 33 33 33 33 32 29 27 26 25 29 31 32 34 35 37 38 42 46 47 48 50 51 51 52 53 55 58 60 63 66 66 65 63 61 59
22 20 15 12 10 9 7 8 8 9 10 11 12 13 13 14 16 16 16 17 17 17 17 18 19 20 22 24 26 28 30 33 36 39 42 46 47 48 49 50 52 54 56 58 60 61 64 67 66 64 60 58 57 56
8 8 7 8 9 11 13 13 13 15 16 17 19 20 21 22 23 24 25 25 26 27 27 28 29 30 31 33 34 36 38 40 41 44 46 47 49 49 52 54 56 58 60 62 63 66 67 65 61 58 56 55 52 48
11 11 12 13 14 15 17 19 21 23 25 26 28 29 30 32 32 33 34 34 34 35 35 36 37 38 39 41 42 43 44 45 46 48 49 51 53 55 57 59 61 63 65 67 68 67 64 61 59 57 54 49 45 43
12 14 17 19 21 24 26 28 29 30 30 31 31 31 31 31 32 33 34 35 35 35 35 35 37 38 39 40 41 43 44 46 48 51 53 56 58 61 64 66 67 68 68 68 66 64 61 58 54 50 46 43 42 41
21 24 26 28 28 28 28 28 28 30 31 32 32 33 33 33 33 32 30 28 28 28 28 30 32 34 37 40 43 46 48 51 54 57 60 62 64 65 66 66 65 63 61 58 55 53 50 48 45 42 41 41 41 40
24 26 26 27 27 28 30 31 32 32 32 31 30 29 28 26 25 24 23 24 26 29 33 36 40 43 46 49 51 53 56 57 59 60 61 61 60 58 56 54 53 52 51 50 49 47 45 44 43 42 41 42 41 39
Wind_Direction
108 115 124 133 138 144 145 139 145 159 168 175 175 173 180 180 178 189 191 195 193 195 193 193 194 191 193 188 189 194 200 202 207 213 217 222 226 234 239 242 246 255 263 267 271 275 277 279 282 284 291 293 292 291
103 111 118 127 136 141 145 152 157 157 156 172 174 174 179 180 175 186 188 193 193 197 194 195 195 197 191 191 195 197 205 206 212 219 222 233 240 243 254 261 267 270 274 276 278 282 284 288 293 294 293 292 292 293
121 119 127 135 130 134 135 145 146 151 157 161 164 169 166 170 175 183 188 189 194 195 196 197 198 197 197 198 199 204 210 214 221 227 233 238 247 253 259 265 270 275 277 278 282 286 287 291 291 292 294 294 293 293
115 112 119 118 121 131 141 146 150 151 154 155 162 162 164 168 174 182 184 189 194 196 198 198 200 202 203 204 206 210 215 220 227 233 240 246 253 258 263 268 272 277 278 282 284 284 288 288 291 292 291 291 292 292
106 112 120 127 140 142 141 141 144 147 153 157 159 163 167 167 167 180 184 191 192 195 198 201 203 205 207 208 212 216 220 226 232 238 244 250 256 262 265 269 272 276 279 282 285 286 285 285 290 287 287 287 290 292
122 127 131 131 131 131 135 139 142 146 150 157 160 161 163 166 169 179 183 191 188 198 199 202 205 209 212 215 218 220 223 229 236 243 249 255 259 263 268 272 276 279 281 284 284 286 287 286 288 288 289 292 293 295
119 121 126 129 132 135 140 144 148 152 156 159 160 163 167 168 177 181 181 178 187 196 199 203 207 212 216 220 223 226 230 236 241 247 253 257 262 266 270 273 278 280 281 282 283 284 285 285 287 289 292 294 296 298
117 124 133 139 144 144 148 150 152 154 158 161 161 160 162 166 172 177 173 176 193 198 199 206 211 215 219 222 226 231 236 240 245 250 255 260 264 267 270 275 279 280 281 282 283 282 283 286 290 293 295 295 296 297
137 146 140 133 142 136 137 149 157 158 163 166 159 159 166 171 172 173 178 186 194 200 203 206 210 216 221 225 230 234 239 243 249 252 256 260 264 268 274 275 278 279 280 280 280 283 287 289 291 293 294 295 296 296
135 140 144 134 141 148 142 141 145 152 157 154 159 165 166 167 174 177 185 191 198 204 204 209 215 219 225 228 233 238 243 247 251 255 259 263 266 269 274 275 275 277 278 280 284 287 289 291 292 292 293 293 293 294
141 146 141 145 144 133 145 155 155 154 152 156 159 161 165 163 168 181 182 195 205 210 210 211 217 221 226 229 234 240 244 250 254 256 258 263 267 271 273 275 277 276 278 282 286 287 287 287 289 290 291 292 294 296
151 157 155 153 162 149 155 148 152 161 164 164 166 170 173 183 184 188 195 195 201 206 211 217 224 230 234 237 240 244 246 250 255 258 262 264 268 271 272 272 271 276 280 282 282 283 285 287 289 290 292 294 297 299
158 161 157 162 156 162 178 183 169 171 169 175 179 191 200 200 192 202 214 222 222 221 219 220 222 227 230 234 239 245 249 254 259 263 265 268 272 271 268 271 276 277 279 281 283 286 286 288 290 293 296 299 301 305
170 174 179 176 170 175 175 178 183 193 187 187 194 189 207 210 211 215 213 207 209 215 219 224 229 235 239 244 249 253 256 260 263 265 269 273 269 271 274 275 278 279 281 283 284 287 290 292 293 296 300 303 307 310
188 189 190 193 192 187 191 193 197 201 211 205 204 209 212 212 210 220 218 221 230 233 236 244 247 249 251 254 256 260 264 266 268 273 272 270 270 273 275 277 280 283 285 287 288 290 290 293 297 301 303 306 309 310
162 170 186 203 207 207 210 213 210 203 206 210 214 224 226 228 229 227 232 240 237 242 248 252 257 260 261 262 262 260 261 264 270 272 274 275 275 277 280 282 284 286 287 289 289 291 293 296 300 303 305 307 307 307
189 184 181 182 191 209 225 229 226 225 222 219 222 229 237 232 233 240 240 238 244 251 254 257 256 255 256 253 257 262 266 267 269 270 272 275 278 280 282 284 285 286 287 286 288 291 295 298 301 303 304 304 304 304
229 222 210 202 198 202 199 206 213 223 223 228 240 243 243 242 241 244 248 248 249 250 250 255 257 257 259 261 263 263 263 265 268 272 275 277 278 278 279 280 281 281 284 288 290 293 296 299 300 300 301 301 301 300
233 235 237 233 228 222 219 221 223 226 228 235 242 246 246 245 243 244 248 250 250 254 260 263 261 262 265 266 266 268 269 271 273 274 275 275 275 275 276 278 281 284 287 290 292 294 296 297 297 299 299 299 299 298
240 243 243 238 238 239 238 239 240 245 248 249 247 248 250 254 256 257 257 257 257 260 263 260 255 256 258 261 266 270 272 273 273 272 272 273 274 277 279 282 284 286 288 290 292 293 294 295 296 296 297 297 297 298
246 248 240 244 248 245 244 240 240 244 244 240 244 243 244 249 250 252 251 253 257 262 263 263 265 268 270 271 271 271 270 270 271 272 273 276 279 281 283 285 286 287 289 291 292 293 293 293 294 295 295 296 298 300
275 265 262 264 265 268 261 257 259 258 256 255 256 257 259 258 260 260 262 262 262 263 262 264 265 266 266 267 268 269 271 273 275 277 279 280 281 282 284 285 287 289 290 291 291 291 292 293 294 295 296 299 302 304
276 268 265 261 257 257 256 258 257 258 258 257 258 258 258 259 259 261 262 263 264 264 265 266 268 269 270 272 272 273 274 275 276 277 279 280 282 283 284 286 287 288 288 290 291 293 294 294 295 297 300 302 304 305
324 298 282 270 265 262 258 256 255 254 255 255 255 256 257 258 260 260 261 263 265 267 268 269 269 270 270 271 273 274 275 276 277 279 280 281 282 284 286 287 288 289 290 290 291 293 294 295 297 300 302 303 305 307
303 305 303 305 286 267 264 263 263 263 264 264 263 263 264 264 265 266 266 267 268 268 269 270 271 272 272 273 273 273 275 276 277 279 279 280 280 278 281 285 286 288 291 293 293 293 295 298 300 302 304 306 307 308
300 306 304 299 286 278 273 269 267 266 267 267 267 268 268 268 268 268 268 269 269 269 269 270 270 270 271 272 273 273 273 272 271 272 275 277 279 280 280 282 283 286 289 291 294 297 300 302 303 305 306 307 307 308
303 305 301 296 288 281 277 271 269 267 266 267 269 271 272 273 273 274 275 275 277 278 277 279 280 278 274 275 271 268 269 272 274 277 281 283 283 282 283 285 288 290 293 294 295 298 301 304 306 307 307 307 307 308
303 300 288 284 268 276 269 270 275 283 288 294 297 298 298 296 293 294 291 289 286 285 284 284 284 284 282 280 279 279 279 279 279 280 280 282 284 286 288 288 289 291 292 294 296 300 303 305 306 306 305 306 307 308
267 260 261 266 279 284 285 290 294 298 300 298 296 294 293 291 290 289 289 287 286 285 286 287 288 290 290 289 286 285 284 284 284 285 285 285 285 285 286 288 290 293 295 297 299 301 303 304 304 304 305 306 306 306
284 293 297 299 302 301 300 299 297 296 294 293 292 292 292 291 290 289 288 287 287 287 287 286 286 285 285 285 285 285 285 285 285 284 285 285 286 288 290 291 293 295 296 298 300 301 301 301 301 302 302 302 302 303
299 299 299 298 299 299 299 298 296 294 293 292 291 291 290 290 289 289 289 288 288 288 287 287 288 287 287 287 287 287 287 287 286 287 288 288 290 291 293 294 295 296 297 298 298 298 298 298 298 298 298 298 299 300
302 300 300 300 299 298 296 295 295 294 292 290 290 290 290 290 290 290 290 289 289 289 290 292 293 293 293 292 291 290 290 289 289 290 290 291 292 293 294 295 296 297 297 298 298 299 299 298 297 296 296 298 300 300
302 301 301 299 298 297 296 295 294 295 293 291 289 289 289 289 290 290 290 292 293 293 294 294 295 294 293 292 291 291 291 291 291 292 293 294 295 296 297 298 299 300 300 300 300 299 298 297 295 294 294 296 298 298